Wind_Speed
13 13 10 8 5 3 5 11 10 6 7 9 8 8 12 12 7 4 4 4 3 4 4 5 5 7 8 10 10 10 9 10 12 13 15 16 16 14 12 13 16 17 17 16 15 14 14 14 14
12 11 8 5 3 3 4 9 8 6 6 6 5 6 9 11 7 6 6 6 5 5 5 6 6 7 7 8 9 8 7 8 10 12 13 15 15 14 12 12 14 15 16 17 17 16 16 15 15
11 10 5 1 2 5 6 7 5 4 4 4 3 4 6 8 6 4 5 6 6 7 8 8 8 8 8 8 8 8 8 8 9 11 12 13 14 14 13 12 13 14 15 16 17 18 18 17 17
10 8 4 3 3 5 6 7 6 3 1 1 3 3 3 4 4 3 3 4 6 8 9 10 10 10 10 10 10 10 10 11 11 12 13 14 14 14 13 13 13 13 14 15 16 18 19 19 18
10 6 4 6 2 6 7 6 6 7 7 4 4 6 5 4 6 7 7 7 7 9 10 10 11 11 12 12 13 13 13 13 14 14 14 14 14 14 15 15 15 14 14 15 16 17 18 18 18
11 7 6 5 2 5 7 6 6 9 8 6 5 6 7 5 6 7 9 10 9 10 11 11 12 12 13 13 14 14 14 14 14 14 14 14 15 15 15 16 16 16 16 17 17 18 18 18 18
13 9 8 7 3 3 4 5 7 10 10 9 6 7 9 7 5 5 8 10 10 10 11 12 12 12 13 13 13 13 13 13 13 13 13 13 13 14 15 16 16 17 17 17 17 18 19 19 19
16 13 12 11 7 4 1 4 8 9 11 11 9 8 9 8 5 4 6 9 10 12 13 13 13 13 12 12 12 12 12 13 14 13 13 13 13 13 14 15 15 15 15 16 16 16 17 19 20
20 17 16 15 12 6 4 6 9 10 11 12 11 9 9 9 8 4 3 7 9 11 12 13 13 13 13 13 13 14 14 15 16 16 16 16 16 16 16 16 15 15 16 16 17 16 17 17 18
21 20 20 19 16 10 6 8 10 13 15 16 15 14 12 11 11 9 7 8 10 11 13 15 16 16 16 17 18 19 19 19 20 21 20 20 20 20 21 20 19 18 17 17 17 17 16 17 17
21 22 23 21 17 12 8 8 12 17 21 23 23 23 21 18 17 18 17 15 14 15 16 18 20 21 21 22 23 24 24 25 25 25 25 24 24 24 25 25 24 23 21 20 19 19 18 18 17
22 23 24 22 19 16 13 12 15 21 24 27 28 29 28 25 24 24 23 21 20 20 20 21 24 26 27 27 28 29 29 29 30 30 30 29 29 28 27 28 28 28 27 25 24 23 22 22 20
25 24 24 22 21 20 19 17 18 22 27 30 32 33 32 31 29 27 25 25 26 26 25 24 26 29 31 32 32 33 33 34 34 35 35 34 33 33 32 30 30 31 31 30 28 27 26 26 25
29 27 25 24 23 24 25 25 24 25 29 33 35 36 37 36 34 32 31 30 30 31 32 31 32 34 35 36 37 37 37 37 37 37 37 37 35 35 35 35 34 33 33 32 31 31 30 29 29
31 29 28 27 27 28 30 29 29 28 30 33 36 38 39 39 38 38 37 37 37 37 38 38 38 38 39 40 41 40 40 39 37 36 36 36 36 37 37 37 36 36 35 34 33 33 32 32 32
33 31 30 30 30 30 32 31 30 29 28 31 34 36 38 39 40 40 41 41 41 41 40 40 40 40 40 40 41 41 41 40 38 37 36 36 36 37 37 39 38 38 37 35 34 34 34 35 35
33 31 30 29 30 31 32 32 31 30 28 30 32 35 36 37 38 39 39 40 40 40 39 39 39 39 39 39 39 39 39 38 38 37 37 37 38 38 39 39 40 39 37 37 36 36 37 37 38
27 25 23 23 25 26 28 28 27 28 27 28 31 34 35 35 34 34 34 35 37 37 38 38 38 38 38 38 37 37 37 37 37 37 37 38 39 40 41 41 42 42 42 41 40 39 39 39 40
19 17 18 20 22 23 24 26 27 27 26 30 34 36 35 33 32 31 31 31 32 34 36 38 38 39 40 40 39 39 38 38 38 38 39 40 41 42 43 42 43 43 43 42 42 41 40 40 41
14 17 21 24 25 25 26 28 30 31 32 33 36 36 35 32 29 29 30 32 32 33 35 36 36 38 39 40 40 40 39 38 38 39 39 40 41 42 42 42 41 41 41 41 40 40 41 40 41
15 19 21 24 25 27 30 31 32 34 35 34 34 34 31 28 27 29 32 32 33 33 33 33 34 35 36 37 38 39 38 37 36 36 36 37 38 38 38 39 39 38 39 38 38 39 39 39 39
18 20 21 20 24 28 32 35 32 33 33 31 29 27 25 24 26 29 31 32 32 32 32 33 34 35 37 37 38 38 38 38 37 36 35 35 36 36 37 38 38 38 39 40 39 40 40 41 40
17 18 18 17 18 20 24 26 22 22 21 21 21 22 21 22 24 27 29 31 31 32 33 34 36 38 39 40 39 39 40 40 40 39 38 37 37 37 38 39 40 41 41 42 43 43 43 43 42
10 10 11 12 12 13 14 16 13 13 13 15 16 18 19 22 25 27 29 31 32 33 34 35 37 39 41 42 42 42 42 42 42 41 40 39 39 39 39 40 40 42 43 44 45 45 46 45 45
5 5 5 7 9 9 12 14 14 14 16 18 20 22 24 25 26 27 28 31 32 33 33 35 37 39 40 41 42 43 44 44 44 43 43 42 41 41 41 41 42 43 44 45 46 47 47 46 46
5 6 5 4 5 5 11 15 16 17 19 21 24 25 26 27 28 29 31 32 34 34 35 36 37 38 39 40 41 41 42 43 44 45 45 45 44 44 44 44 45 45 45 46 46 46 46 46 46
7 8 8 8 7 7 11 16 20 22 24 25 26 27 28 29 30 31 33 34 35 36 37 38 39 40 41 41 40 40 40 40 41 43 45 46 46 46 46 46 46 46 45 45 44 44 43 43 43
10 10 11 11 11 9 7 10 17 21 24 26 27 28 29 30 32 33 34 35 36 37 37 39 40 40 41 42 41 40 39 39 39 40 41 43 44 45 45 45 44 43 42 41 40 38 37 36 36
11 11 12 13 14 15 12 10 18 20 23 25 27 29 31 33 34 35 36 36 36 36 37 38 39 40 41 42 42 41 39 38 37 37 38 39 39 40 40 40 39 39 37 35 32 30 29 29 28
11 13 14 16 17 19 20 18 21 24 26 28 30 33 35 36 37 38 39 40 39 38 38 38 39 39 40 41 40 40 39 37 36 35 35 35 35 35 35 35 34 33 31 28 26 24 25 25 26
Wind_Direction
152 148 139 135 144 170 116 96 85 65 54 63 68 63 57 64 73 68 59 72 70 62 49 45 39 32 29 28 27 28 28 28 24 18 14 12 12 13 14 12 12 12 11 11 11 12 14 14 15
166 164 149 133 170 178 119 99 93 86 71 69 71 69 71 65 64 56 54 48 32 30 21 17 14 14 15 14 12 12 11 11 8 5 5 4 4 4 2 1 3 6 7 7 7 7 6 6 9
182 182 177 166 110 114 99 91 81 83 87 61 42 53 61 66 58 51 53 40 17 7 357 355 353 352 350 349 350 348 344 343 344 347 350 353 353 352 350 349 352 356 359 360 1 2 1 1 2
192 194 211 226 114 86 75 68 61 6 351 23 337 347 8 30 11 352 356 4 359 354 346 344 341 340 338 335 333 330 327 325 328 333 336 338 340 340 339 339 341 344 346 347 349 352 353 354 355
195 188 244 253 142 74 56 37 20 333 319 323 315 311 308 332 333 326 319 326 337 333 327 325 323 325 326 326 324 324 323 323 324 327 329 331 333 333 333 331 331 331 331 332 334 337 340 343 344
189 188 236 235 169 70 44 16 334 311 309 320 306 292 286 289 300 308 305 310 320 319 314 312 311 314 317 321 322 323 324 324 325 326 328 331 333 334 333 331 328 325 322 322 323 324 325 327 330
185 191 212 204 163 82 32 345 319 301 296 293 293 290 290 286 288 296 298 298 301 303 305 306 307 309 312 316 320 323 324 325 324 325 327 329 332 335 335 334 331 328 326 324 322 321 320 319 317
188 193 210 209 178 165 159 293 292 296 285 283 287 291 299 299 300 305 298 300 303 302 301 301 302 303 303 306 310 314 316 318 318 319 320 320 321 324 327 330 329 327 327 327 326 326 325 321 316
195 200 216 227 223 213 215 242 266 278 282 282 284 288 293 296 301 312 313 309 309 306 302 301 300 299 298 298 301 303 304 306 306 307 308 308 307 309 313 315 317 315 314 313 314 317 319 319 316
200 204 221 235 245 250 226 230 263 282 292 295 292 291 293 296 297 305 305 304 303 302 301 298 296 295 294 297 298 299 299 300 300 299 301 301 300 299 301 302 302 303 303 303 303 304 308 311 309
205 207 225 238 251 265 261 252 275 289 295 298 297 296 296 297 295 299 300 298 293 292 292 294 295 294 294 295 296 297 297 296 297 297 298 298 297 296 296 296 295 295 294 294 293 292 294 299 299
215 214 225 238 250 263 274 272 275 284 288 291 293 294 296 297 298 300 300 298 295 291 289 290 292 293 292 292 292 292 292 293 294 295 295 294 293 292 290 291 292 292 290 288 286 285 285 287 288
231 228 234 244 256 264 269 270 272 280 284 287 289 291 294 296 297 299 299 298 295 290 287 286 286 285 286 286 287 287 288 289 290 290 290 290 289 288 286 284 284 285 284 284 284 283 283 284 286
242 241 242 247 254 260 263 264 266 271 277 282 286 290 293 295 297 298 298 296 294 291 288 286 284 283 283 283 283 283 283 284 285 286 287 287 286 284 283 282 280 279 278 279 280 280 281 282 283
246 250 252 253 254 258 261 264 266 267 271 278 283 287 291 294 296 298 298 298 296 294 292 291 289 287 286 286 285 284 283 283 282 281 281 280 279 278 276 275 274 274 274 274 276 277 279 280 280
244 248 251 254 254 255 259 263 266 266 268 274 280 285 289 293 295 297 298 297 296 295 293 291 289 287 287 286 285 285 284 284 282 280 278 276 275 275 276 275 273 272 272 273 275 275 276 278 279
243 246 249 251 254 255 258 261 263 267 270 275 280 282 284 287 290 292 294 295 295 294 292 289 286 285 285 285 284 284 283 283 281 280 278 277 276 276 277 279 278 280 279 279 280 279 277 278 280
243 245 245 244 248 252 256 260 263 267 273 276 278 279 280 283 284 287 290 292 294 294 293 291 287 285 283 282 281 281 280 280 280 279 278 276 276 276 276 277 278 280 282 282 282 282 280 280 280
234 234 236 239 241 242 246 251 257 263 268 275 278 280 281 283 284 287 289 291 292 293 293 291 288 286 285 284 283 281 279 278 278 277 276 276 276 276 276 276 276 277 279 279 281 282 281 281 280
220 224 228 234 240 243 245 251 257 261 265 270 276 280 282 285 289 293 295 296 296 295 292 290 288 287 286 285 285 283 282 280 279 278 277 277 277 277 278 277 276 276 277 277 278 279 280 281 281
232 237 236 238 244 251 256 260 265 270 273 273 274 276 278 283 290 293 297 299 298 295 292 291 290 288 288 287 287 286 286 284 282 280 279 279 280 279 279 279 279 278 278 278 279 279 280 281 281
251 254 257 253 247 246 253 261 265 268 271 274 273 272 274 283 290 293 297 298 297 295 294 294 294 292 291 289 288 287 287 287 286 285 283 283 284 284 284 284 283 283 282 282 282 282 282 282 282
265 267 268 266 259 252 252 259 267 269 273 273 276 278 281 291 295 296 297 298 299 299 299 298 297 295 293 291 288 287 285 285 285 285 285 284 284 285 285 284 284 284 283 283 283 283 283 283 282
273 274 269 265 263 257 259 265 273 280 287 289 291 294 295 294 294 297 301 304 305 306 306 305 302 299 297 294 291 288 285 283 283 282 282 282 282 282 283 283 283 283 283 282 281 281 282 282 280
294 293 283 266 267 270 272 279 284 290 296 298 298 299 301 301 303 307 311 313 314 316 315 313 309 306 302 299 296 291 287 284 283 282 282 282 282 282 283 284 284 284 283 282 281 280 280 279 277
321 312 311 299 281 270 273 277 288 293 296 299 302 305 309 313 317 319 321 322 323 324 322 320 318 316 312 308 304 298 293 289 286 285 284 284 284 284 285 286 286 285 284 282 281 280 278 277 276
295 297 306 311 308 299 283 285 288 293 297 301 306 311 315 318 322 323 324 324 325 325 325 324 322 321 319 316 312 308 302 297 292 289 287 287 287 287 287 288 287 286 284 283 281 278 277 275 273
278 278 287 299 305 297 281 294 298 296 299 301 305 311 317 320 322 322 322 322 323 323 322 321 320 321 321 320 317 313 308 302 298 294 292 291 290 290 289 288 288 286 285 283 280 277 275 272 269
289 291 294 299 307 310 306 306 302 299 299 302 308 314 318 319 319 318 317 317 317 316 315 316 318 319 320 320 318 315 310 305 300 297 295 293 293 292 290 289 288 287 285 281 275 271 268 262 257
303 306 305 303 306 309 308 308 298 299 304 310 314 315 315 314 313 311 310 310 311 312 312 313 315 316 317 318 318 316 312 306 302 299 297 296 296 294 293 292 291 288 283 276 266 259 252 247 242
Height
5934 5933 5933 5934 5934 5934 5934 5933 5933 5934 5935 5936 5935 5935 5935 5935 5935 5936 5935 5933 5933 5933 5933 5933 5934 5934 5933 5933 5933 5932 5931 5931 5930 5929 5929 5928 5926 5925 5923 5922 5920 5919 5917 5915 5914 5912 5910 5908 5906
5933 5933 5934 5934 5934 5934 5934 5933 5934 5935 5936 5937 5937 5937 5937 5937 5936 5935 5935 5935 5934 5935 5935 5935 5935 5935 5935 5934 5934 5933 5932 5931 5930 5930 5929 5928 5926 5925 5924 5922 5921 5919 5918 5916 5914 5912 5911 5909 5907
5933 5933 5935 5934 5934 5934 5934 5933 5933 5934 5936 5937 5937 5937 5938 5938 5937 5936 5936 5936 5936 5936 5936 5936 5936 5935 5935 5935 5934 5933 5932 5931 5930 5929 5929 5928 5926 5925 5924 5923 5921 5920 5918 5917 5915 5913 5911 5909 5908
5934 5935 5935 5935 5935 5934 5933 5933 5933 5933 5935 5937 5937 5938 5939 5939 5937 5936 5936 5936 5936 5936 5936 5936 5936 5935 5935 5934 5934 5933 5932 5931 5930 5929 5929 5928 5926 5925 5923 5922 5921 5920 5918 5917 5915 5913 5912 5910 5908
5935 5935 5935 5934 5933 5933 5933 5933 5933 5934 5935 5936 5937 5937 5939 5939 5937 5935 5935 5935 5936 5935 5935 5935 5935 5935 5934 5934 5933 5932 5932 5931 5930 5929 5928 5927 5926 5925 5923 5922 5921 5919 5918 5916 5915 5913 5911 5910 5908
5935 5935 5934 5931 5931 5932 5933 5933 5934 5934 5935 5936 5936 5936 5937 5939 5938 5935 5934 5934 5935 5935 5934 5934 5934 5933 5933 5932 5932 5931 5930 5930 5929 5928 5927 5926 5925 5924 5922 5921 5920 5918 5917 5915 5914 5912 5910 5909 5907
5934 5934 5931 5931 5931 5932 5932 5932 5933 5933 5934 5935 5935 5935 5935 5937 5938 5936 5933 5933 5934 5934 5933 5933 5932 5932 5931 5930 5930 5929 5929 5928 5927 5926 5925 5924 5923 5922 5920 5919 5918 5916 5915 5913 5912 5910 5908 5907 5906
5932 5932 5930 5929 5930 5932 5933 5933 5932 5932 5932 5933 5934 5934 5934 5935 5937 5937 5935 5933 5933 5933 5932 5931 5931 5930 5929 5928 5927 5927 5926 5925 5924 5924 5923 5922 5921 5919 5918 5916 5915 5913 5912 5910 5909 5907 5906 5904 5903
5930 5930 5928 5928 5929 5931 5932 5932 5931 5931 5931 5932 5933 5934 5933 5933 5935 5938 5937 5935 5933 5933 5931 5930 5929 5928 5927 5926 5925 5924 5924 5923 5922 5921 5920 5919 5917 5916 5914 5913 5911 5910 5908 5906 5905 5903 5902 5901 5899
5928 5928 5927 5927 5928 5930 5931 5931 5929 5929 5929 5930 5931 5931 5932 5932 5932 5935 5936 5936 5934 5933 5931 5929 5927 5926 5925 5924 5923 5922 5921 5920 5919 5918 5917 5915 5914 5912 5911 5909 5907 5906 5904 5902 5900 5899 5897 5896 5895
5925 5926 5925 5926 5928 5930 5930 5930 5928 5927 5926 5926 5926 5927 5928 5929 5929 5930 5932 5933 5932 5931 5929 5927 5924 5923 5922 5921 5919 5918 5917 5916 5915 5913 5912 5911 5909 5908 5906 5904 5902 5900 5899 5898 5896 5894 5892 5891 5890
5922 5923 5923 5925 5926 5928 5929 5929 5927 5925 5923 5922 5922 5922 5923 5924 5925 5925 5925 5926 5926 5925 5925 5923 5921 5919 5917 5916 5914 5913 5911 5910 5909 5908 5907 5905 5903 5902 5900 5898 5896 5894 5893 5892 5890 5889 5887 5886 5885
5920 5922 5923 5925 5926 5926 5926 5926 5926 5923 5919 5917 5917 5917 5918 5919 5920 5920 5920 5919 5919 5918 5919 5919 5917 5914 5912 5910 5909 5907 5905 5904 5902 5900 5899 5897 5895 5894 5892 5891 5890 5888 5886 5885 5884 5882 5881 5880 5879
5915 5918 5920 5922 5922 5922 5922 5922 5922 5921 5916 5914 5912 5912 5912 5913 5913 5913 5912 5911 5910 5909 5910 5910 5909 5907 5904 5903 5901 5900 5899 5897 5895 5893 5890 5888 5887 5885 5883 5882 5881 5880 5878 5877 5876 5875 5874 5873 5872
5911 5914 5916 5917 5917 5917 5916 5917 5917 5917 5914 5911 5909 5908 5907 5906 5906 5905 5904 5903 5901 5900 5899 5898 5897 5896 5893 5891 5890 5889 5889 5888 5886 5885 5882 5880 5878 5876 5874 5871 5870 5869 5868 5867 5867 5866 5865 5865 5864
5906 5908 5910 5911 5911 5911 5911 5911 5910 5910 5910 5909 5907 5905 5903 5902 5900 5899 5898 5896 5894 5892 5891 5889 5887 5885 5883 5881 5879 5878 5877 5876 5875 5874 5872 5871 5868 5866 5864 5861 5858 5856 5855 5855 5856 5856 5855 5855 5854
5899 5901 5903 5905 5904 5905 5905 5905 5904 5904 5905 5905 5904 5902 5900 5899 5897 5895 5893 5890 5887 5885 5883 5881 5878 5876 5874 5872 5870 5868 5867 5865 5864 5862 5861 5860 5858 5856 5855 5853 5849 5845 5844 5843 5844 5845 5845 5845 5844
5893 5895 5896 5898 5898 5899 5899 5898 5898 5899 5899 5899 5898 5897 5896 5895 5894 5891 5889 5885 5882 5878 5875 5872 5869 5867 5865 5863 5862 5860 5858 5856 5855 5853 5851 5849 5847 5846 5845 5844 5841 5839 5837 5835 5835 5835 5835 5834 5833
5889 5890 5891 5891 5891 5892 5891 5892 5892 5893 5893 5891 5889 5889 5888 5888 5887 5886 5884 5881 5877 5873 5869 5865 5861 5858 5855 5853 5852 5851 5849 5847 5846 5844 5842 5839 5837 5835 5834 5833 5832 5830 5828 5826 5826 5825 5824 5824 5823
5884 5885 5885 5885 5886 5887 5887 5887 5887 5888 5887 5885 5882 5881 5880 5880 5880 5879 5876 5873 5870 5866 5862 5858 5854 5850 5847 5844 5842 5840 5839 5837 5836 5834 5832 5829 5827 5825 5823 5822 5821 5820 5818 5817 5816 5815 5814 5814 5813
5880 5880 5881 5881 5882 5882 5882 5882 5881 5880 5879 5878 5877 5875 5874 5874 5873 5871 5868 5865 5862 5858 5855 5851 5847 5843 5839 5836 5833 5830 5828 5827 5825 5824 5822 5820 5817 5815 5813 5812 5810 5809 5808 5807 5807 5806 5804 5804 5803
5875 5875 5876 5877 5878 5878 5877 5874 5876 5874 5872 5871 5871 5869 5868 5867 5866 5864 5861 5858 5855 5851 5847 5842 5838 5834 5831 5828 5825 5822 5819 5817 5815 5813 5812 5810 5808 5806 5804 5802 5800 5799 5797 5796 5796 5795 5794 5793 5793
5871 5871 5871 5871 5871 5871 5870 5869 5870 5868 5866 5865 5864 5862 5862 5861 5859 5857 5855 5851 5847 5842 5838 5834 5829 5825 5822 5819 5816 5813 5811 5808 5806 5804 5802 5801 5799 5796 5794 5792 5791 5789 5788 5786 5785 5784 5783 5782 5782
5867 5867 5866 5866 5865 5866 5865 5864 5864 5861 5860 5858 5857 5857 5856 5855 5854 5851 5848 5843 5838 5834 5829 5825 5821 5817 5813 5809 5806 5803 5801 5798 5796 5794 5792 5791 5789 5787 5785 5783 5781 5779 5778 5776 5774 5773 5772 5771 5770
5865 5865 5865 5863 5862 5862 5860 5858 5858 5856 5854 5853 5852 5851 5850 5848 5846 5842 5838 5834 5830 5826 5822 5817 5813 5808 5804 5799 5795 5792 5789 5786 5784 5782 5781 5779 5778 5776 5774 5772 5770 5768 5766 5765 5763 5762 5760 5759 5758
5863 5862 5863 5862 5860 5859 5856 5854 5853 5851 5849 5847 5845 5843 5841 5838 5836 5832 5829 5825 5822 5818 5814 5810 5805 5800 5795 5790 5785 5781 5777 5774 5771 5769 5768 5766 5765 5763 5761 5759 5757 5755 5754 5752 5750 5749 5747 5746 5745
5861 5860 5859 5858 5857 5856 5853 5851 5848 5845 5843 5841 5838 5836 5834 5832 5829 5826 5822 5819 5816 5812 5808 5802 5797 5792 5786 5781 5776 5771 5767 5763 5760 5757 5755 5753 5751 5750 5748 5746 5744 5742 5740 5738 5737 5735 5734 5733 5733
5859 5858 5857 5855 5854 5852 5852 5849 5846 5842 5839 5837 5834 5832 5830 5827 5823 5820 5817 5814 5810 5806 5801 5796 5791 5785 5779 5773 5768 5763 5758 5753 5750 5747 5744 5741 5739 5737 5735 5733 5731 5729 5727 5725 5724 5723 5722 5721 5721
5856 5855 5853 5852 5850 5848 5847 5849 5842 5839 5835 5833 5831 5828 5825 5821 5818 5814 5811 5807 5804 5800 5795 5790 5784 5778 5772 5767 5761 5755 5750 5745 5741 5737 5734 5731 5728 5725 5723 5720 5718 5716 5715 5713 5713 5712 5712 5711 5712
5853 5852 5850 5848 5846 5844 5842 5843 5836 5833 5830 5828 5825 5822 5818 5814 5811 5807 5803 5799 5796 5792 5787 5782 5777 5771 5765 5760 5754 5748 5742 5737 5733 5729 5725 5722 5719 5716 5713 5710 5707 5705 5704 5703 5703 5703 5703 5704 5705